HUBBLE
1 20580U 90037B 08212.91334726 .00000281 00000-0 88791-5 0 01904
2 20580 028.4688 038.0284 0003778 130.6269 229.4651 15.00396007801559
PO-34
1 25520U 98064B 08212.47934729 .00000335 00000-0 67247-5 0 00521
2 25520 028.4601 248.9373 0005125 038.9714 321.1250 15.17214038539742
ISS
1 25544U 98067A 08212.83484381 .00006537 00000-0 51827-4 0 09552
2 25544 051.6415 152.0335 0010007 014.7331 090.0878 15.72736755555409
CO-58
1 28895U 05043F 08213.74568765 .00000177 00000-0 46800-4 0 837
2 28895 098.0952 106.6908 0016670 270.4317 089.5011 14.59686459146980
NCUBE2
1 28897U 05043H 08212.26564224 .00000065 00000-0 23151-4 0 06141
2 28897 098.0909 105.1714 0016248 278.2018 081.7330 14.59857681139053
FCAL
1 29667U 06055J 08146.34060426 .11864717 12752-4 73624-4 0 9790
2 29667 051.6107 065.3702 0009039 260.8350 099.5042 16.53464210 82911
FALCON
1 30776U 07006E 08212.55260197 .00000185 00000-0 16501-4 0 03775
2 30776 035.4346 250.4874 0001617 355.6568 004.4134 15.03026172076672
MAST
1 31126U 07012K 08212.61257114 .00000001 00000-0 10912-4 0 3872
2 31126 098.0357 275.3065 0094294 196.8104 162.9985 14.53436967 68329
CAPE1
1 31130U 07012P 08213.91625508 -.00000062 00000-0 -33462-5 0 3670
2 31130 098.0362 275.4650 0102597 195.7734 164.0250 14.51979930 68210
CUTE1-7
1 32785U 08021C 08211.40323307 .00000151 00000-0 26244-4 0 01160
2 32785 097.9899 271.2163 0015420 003.5932 356.5394 14.81379341013655
COMPASS
1 32787U 08021E 08213.76394356 .00000124 00000-0 22721-4 0 1071
2 32787 097.9867 273.5239 0016105 357.1935 002.9186 14.81440740 14006
AAUSAT2
1 32788U 08021F 08212.81149646 .00000325 00000-0 48278-4 0 01097
2 32788 097.9875 272.5893 0015579 003.8083 356.3240 14.81550423013864
DO-64
1 32789U 08021G 08212.68423374 .00000449 00000-0 64134-4 0 01182
2 32789 097.9904 272.4819 0015923 000.5833 359.5383 14.81439942013848
SEEDS
1 32791U 08021J 08213.77289472 .00000007 00000-0 78467-5 0 1056
2 32791 097.9886 273.5472 0016468 355.3867 004.7190 14.81297097 13972
CANX-2
1 32797U 08021L 08213.63232793 .00000133 00000-0 17053-4 0 558
2 32797 097.9887 273.4338 0015817 356.6248 003.5362 14.81373642 12667
RS-30
1 32953U 08025A 08212.79399208 .00000010 00000-0 00000-0 0 00720
2 32953 082.5009 096.4771 0018728 156.3762 203.8181 12.42996831008464
